Regional Weather Roundup
Issued by NWS Cleveland, OH

Home | Current Version | Previous Version | Text Only | Print | Product List | Glossary Off
Versions: 1 2 3 4 5 6 7 8 9 10 11 12 13 14 15 16 17 18 19 20 21 22 23 24 25 26 27 28 29 30 31 32 33 34 35 36 37 38 39 40 41 42 43 44 45 46 47 48 49 50

000
ASUS41 KCLE 221900
RWRCLE
OHIO REGIONAL WEATHER ROUNDUP
NATIONAL WEATHER SERVICE WILMINGTON, OH
300 PM EDT MON SEP 22 2014

NOTE: "FAIR" INDICATES FEW OR NO CLOUDS BELOW 12,000 FEET WITH NO
SIGNIFICANT WEATHER AND/OR OBSTRUCTIONS TO VISIBILITY.

OHZ001>008-015>018-024>027-034-035-043-044-222000-
   NORTHWEST OHIO

CITY           SKY/WX    TMP DP  RH WIND       PRES   REMARKS
DEFIANCE       SUNNY    N/A N/A N/A N10       30.22F
FINDLAY        SUNNY     62  39  42 NW9       30.21F
TOLEDO EXPRESS SUNNY     61  40  45 W9        30.21F
TOLEDO METCALF SUNNY     60  40  47 W12       30.22F
LIMA           SUNNY     61  40  45 NW7       30.22F
$$

OHZ009>014-019>023-028>033-038-089-222000-
   NORTHEAST OHIO

CITY           SKY/WX    TMP DP  RH WIND       PRES   REMARKS
CLE-HOPKINS    CLOUDY    55  41  59 W6        30.22F
CLE-LAKEFRONT  CLOUDY    55  43  63 MISG      30.19F
CUY CO. ARPT   CLOUDY    55  46  71 NW16      30.20F
LORAIN-ELYRIA  CLOUDY    58  42  55 NW9       30.22S
ASHTABULA      CLOUDY    53  42  66 NW7       30.18S
AKRON-CANTON   CLOUDY    56  41  57 NW7       30.20R
WOOSTER        NOT AVBL
MANSFIELD      MOSUNNY   56  40  55 N9        30.21F
YOUNGSTOWN     CLOUDY    55  42  61 VRB7      30.17F
$$

OHZ042-051>053-060>062-070>072-077>081-222000-
  SOUTHWEST OHIO

CITY           SKY/WX    TMP DP  RH WIND       PRES   REMARKS
CINC-COVINGTON SUNNY     63  42  46 NW6       30.23F
CINC-LUNKEN    SUNNY     64  43  46 N12       30.23F
HAMILTON       SUNNY     62  43  49 VRB5      30.24F
DAYTON         NOT AVBL
WRIGHT-PAT AFB SUNNY     62  40  45 N7        30.22F
DAYTON GENERAL SUNNY     60  42  51 MISG      30.22S
WILMINGTON     SUNNY     62  39  42 VRB3      30.21F
$$

OHZ036-037-039>041-045>050-054>059-063>069-073>076-082>088-222000-
  CENTRAL AND SOUTHEAST OHIO

CITY           SKY/WX    TMP DP  RH WIND       PRES   REMARKS
COLUMBUS       SUNNY     64  38  38 VRB7      30.20F
OSU AIRPORT    SUNNY     61  39  44 MISG      30.21S
BOLTON FIELD   SUNNY     61  41  48 NW5       30.21F
RICKENBACK AFB NOT AVBL
NEWARK         MOSUNNY   60  40  47 N3        30.20F HAZE
MARION         SUNNY     59  38  45 N7        30.22F
LANCASTER      SUNNY     63  41  44 VRB6      30.21F
ZANESVILLE     CLOUDY    58  41  53 VRB3      30.21R
NEW PHILLY     CLOUDY    57  41  55 W7        30.21S
$$


USA.gov is the U.S. government's official web portal to all federal, state and local government web resources and services.